Regional Weather Roundup
Issued by NWS

Home | Current Version | Previous Version | Text Only | Print | Product List | Glossary On
Versions: 1 2 3 4 5 6 7 8 9 10 11 12 13 14 15 16 17 18 19 20 21 22 23 24 25 26 27 28 29 30 31 32 33 34 35 36 37 38 39 40 41 42 43 44 45 46 47 48 49 50
000
ASUS43 KMPX 210701
RWRMN
WEATHER ROUNDUP FOR MINNESOTA
NATIONAL WEATHER SERVICE TWIN CITIES/CHANHASSEN MN
100 AM CST SAT JAN 21 2017


NOTE: "FAIR" INDICATES FEW OR NO CLOUDS BELOW 12,000 FEET WITH NO
SIGNIFICANT WEATHER AND/OR OBSTRUCTIONS TO VISIBILITY. N/A MEANS
CURRENT SKY AND/OR WEATHER CONDITIONS ARE NOT AVAILABLE.

MNZ060>063-068>070-210800-
   Twin Cities Metro

CITY           SKY/WX    TMP DP  RH WIND       PRES   REMARKS
TWIN CITIES    CLOUDY    35  33  92 SE8       29.52F FOG     WCI  29
ST PAUL        CLOUDY    35  35 100 SE7       29.54F FOG     WCI  29
CRYSTAL        CLOUDY    36  33  89 SE6       29.51F FOG
BLAINE         FOG       37  37 100 E5        29.51F VSB 1
LAKEVILLE      CLOUDY    32  32 100 E5        29.51F FOG     WCI  27
EDEN PRAIRIE   FOG       35  34  96 E6        29.50F VSB 3/4 WCI  30
SOUTH ST PAUL  CLOUDY    36  35  99 CALM      29.52F FOG
LAKE ELMO      FOG       36  36 100 E3        29.53F VSB 1
$$
MNZ001>005-007-008-013>017-022>024-027-028-210800-
   Northwest Minnesota

CITY           SKY/WX    TMP DP  RH WIND       PRES   REMARKS
BEMIDJI        CLOUDY    33  33 100 SE9       29.48F FOG     WCI  25
HALLOCK        CLOUDY    36  34  93 SE10      29.44S
ROSEAU         CLOUDY    36  30  80 SE7       29.47S
WARROAD        CLOUDY    36  30  80 SE8       29.48S
THIEF RVR FALL CLOUDY    35  33  92 SE15      29.45F WCI  25
CROOKSTON      CLOUDY    36  34  93 SE10      29.45S
FOSSTON        CLOUDY    34  32  93 SE9       29.46S WCI  26
DETROIT LAKES  CLOUDY    34  34 100 SE13      29.45F FOG     WCI  25
MOORHEAD       CLOUDY    36  34  93 SE7       29.43F
PARK RAPIDS    CLOUDY    34  32  92 SE8       29.47F WCI  27
MAHNOMEN       CLOUDY    34  33  94 SE13      29.44F WCI  25
$$
MNZ006-009>011-018-025>026-210800-
   North Central Minnesota

CITY           SKY/WX    TMP DP  RH WIND       PRES   REMARKS
BAUDETTE       CLOUDY    34  33  96 SE7       29.49F FOG     WCI  28
FLAG ISLAND    CLOUDY    34  32  93 SE7       29.49S WCI  28
INTL FALLS     LGT SNOW  33  31  92 SE8       29.53S FOG     WCI  26
WASKISH        CLOUDY    36  34  93 SE8       29.49F
BIG FORK       CLOUDY    36  34  93 SE5       29.52F FOG
LONGVILLE      DRIZZLE   34  34 100 SE3       29.50F
GRAND RAPIDS   FOG       34  32  92 VRB6      29.54F VSB 1/2 WCI  29
CRANE LAKE     LGT SNOW  32  30  93 CALM      29.58S
ORR            FLURRIES  32  30  93 CALM      29.52F
COOK           MIX PCPN  32  32 100 CALM      29.55F
WALKER         CLOUDY    33  32  99 SE5       29.50S FOG     WCI  28
$$
MNZ012-019>021-037-210800-
   Northeast Minnesota

CITY           SKY/WX    TMP DP  RH WIND       PRES   REMARKS
DULUTH         DRZL/FOG  34  34 100 SE8       29.54F VSB 1/4 WCI  27
ELY            CLOUDY    32  32 100 CALM      29.55F
HIBBING        CLOUDY    32  32 100 SE6       29.53F FOG     WCI  26
EVELETH        MIX PCPN  32  32  99 CALM      29.56S
DULUTH HARBOR  MIX PCPN  34  34 100 CALM      29.58F
TWO HARBORS    DRZL/FOG  37  32  81 CALM      29.55F VSB 1/4
SILVER BAY     DRZL/FOG  36  36 100 CALM      29.56F VSB 1/4
GRAND MARAIS     N/A     35  34  96 NE8       29.62F WCI  29
G MARAIS ARPRT MIX PCPN  30  28  93 E5        29.58F WCI  25
$$
MNZ029>031-032-039>041-046>048-054>057-064-210800-
   West Central Minnesota

CITY           SKY/WX    TMP DP  RH WIND       PRES   REMARKS
FERGUS FALLS   CLOUDY    36  36 100 SE12      29.47F
WHEATON        CLOUDY    41  41 100 SE13      29.44R FOG
MORRIS         CLOUDY    34  34 100 SE10      29.43F FOG     WCI  26
ALEXANDRIA     CLOUDY    33  33 100 SE10      29.46F FOG     WCI  25
ELBOW LAKE     CLOUDY    33  33 100 SE9       29.44F FOG     WCI  26
WADENA         CLOUDY    34  34 100 SE8       29.46F WCI  27
GLENWOOD       CLOUDY    34  34 100 E10       29.46F FOG     WCI  26
APPLETON       CLOUDY    36  34  93 SE9       29.43F FOG
BENSON         CLOUDY    37  34  87 S10       29.46S
ORTONVILLE     CLOUDY    34  32  93 SE12      29.41F FOG     WCI  25
MADISON        CLOUDY    37  37 100 SE13      29.42F FOG
WILLMAR        FOG       34  34 100 SE12      29.47S VSB 1   WCI  25
$$
MNZ033>034-036-042>043-049>051-058-059-210800-
   Central Minnesota

CITY           SKY/WX    TMP DP  RH WIND       PRES   REMARKS
ST CLOUD       FOG       34  34 100 E5        29.49F VSB 1/2 WCI  30
SAUK CENTRE    LGT RAIN  33  33 100 E7        29.47F WCI  27
PAYNESVILLE    CLOUDY    33  33 100 E7        29.48F FOG     WCI  27
AITKIN         FOG       36  34  93 E3        29.50F VSB 1
PINE RIVER     CLOUDY    34  34 100 E7        29.54F FOG     WCI  28
BRAINERD       CLOUDY    34  34 100 CALM      29.50F FOG
STAPLES        CLOUDY    34  34 100 SE3       29.48F
LITTLE FALLS   CLOUDY    32  32 100 E6        29.50S FOG     WCI  26
LITCHFIELD     FOG       36  36 100 E8        29.48F VSB 1/2
BUFFALO        FOG       34  33  96 E6        29.51F VSB 1/2 WCI  29
MAPLE LAKE     FOG       35  35 100 MISG      29.51F VSB 1/2
HUTCHINSON     FOG       35  35 100 E9        29.49F VSB 1   WCI  27
$$
MNZ037-044-045-052-053-210800-
   East Central Minnesota

CITY           SKY/WX    TMP DP  RH WIND       PRES   REMARKS
PRINCETON      FOG       36  34  93 E5        29.52S VSB 1/2
MORA           FOG       32  32 100 E5        29.55S VSB 1/2 WCI  27
CAMBRIDGE      CLOUDY    36  36 100 SE5       29.51S FOG
RUSH CITY      CLOUDY    34  34 100 E3        29.53F FOG
MOOSE LAKE     FOG       34  32  93 CALM      29.52F VSB 1
HINCKLEY       FOG       34  34 100 E3        29.54F VSB 1/2
CLOQUET        SNOW      34  34 100 CALM      29.54F VSB 1/4
MCGREGOR       CLOUDY    34  34 100 SE5       29.53F VSB 3/4 WCI  30
$$
MNZ071>073-080-081-089-090-097-098-210800-
   Southwest Minnesota

CITY           SKY/WX    TMP DP  RH WIND       PRES   REMARKS
MONTEVIDEO     CLOUDY    34  34 100 S9        29.46S FOG     WCI  26
GRANITE FALLS  CLOUDY    35  35  98 E10       29.45F FOG     WCI  28
CANBY          CLOUDY    36  35  99 CALM      29.42F FOG
MARSHALL       CLOUDY    34  34 100 SE7       29.42F WCI  28
REDWOOD FALLS  FOG       34  33  96 SE9       29.45F VSB 1/2 WCI  27
OLIVIA         FOG       34  34 100 SE12      29.45F VSB 3/4 WCI  25
PIPESTONE      FOG       36  36 100 SE7       29.38F VSB 3/4
WINDOM         SNOW      36  36 100 E7        29.42F VSB 1/2
WORTHINGTON    FOG       34  34 100 SE8       29.40F VSB 1   WCI  27
JACKSON        FOG       32  32 100 E8        29.42F VSB 1/4 WCI  25
TRACY          CLOUDY    36  35  99 SE6       29.42F
SLAYTON        FOG       33  33 100 SE8       29.41F VSB 1/2 WCI  26
$$
MNZ065>067-074>077-082>085-091>093-210800-
   South Central Minnesota

CITY           SKY/WX    TMP DP  RH WIND       PRES   REMARKS
MANKATO        FOG       34  34 100 E8        29.48F VSB 1/2 WCI  27
NEW ULM        CLOUDY    34  34 100 SE6       29.46F FOG     WCI  29
ST JAMES       FOG       34  34 100 E7        29.46F VSB 1   WCI  28
FAIRMONT       LGT RAIN  34  34 100 E8        29.44F VSB 1/2 WCI  27
GLENCOE        FOG       35  35 100 E8        29.48F VSB 3/4 WCI  28
OWATONNA       CLOUDY    36  34  93 E8        29.48F FOG
WASECA         FOG       34  34 100 E9        29.49F VSB 1/2 WCI  26
ALBERT LEA     FOG       36  36 100 E6        29.46F VSB 1/4
$$
MNZ078>079-086>088-094>096-210800-
   Southeast Minnesota

CITY           SKY/WX    TMP DP  RH WIND       PRES   REMARKS
ROCHESTER      FOG       33  33 100 SE10      29.50F VSB 1/4 WCI  25
RED WING       CLOUDY    36  36 100 SE6       29.53S FOG
STANTON        CLOUDY    36  34  93 E3        29.50F FOG
DODGE CENTER   FOG       34  34 100 CALM      29.49F VSB 1/2
WINONA         CLOUDY    34  34 100 CALM      29.55F FOG
AUSTIN         FOG       34  34 100 E7        29.47F VSB 1/2 WCI  28
PRESTON        FOG       33  32  97 E6        29.50F VSB 1/4 WCI  28
$$
ABBREVIATIONS USED IN REMARKS
   TC - TEMPERATURES IN CELSIUS
  WCI - WIND CHILL INDEX
   HX - HEAT INDEX
  VSB - VISIBILITY
$$




USA.gov is the U.S. government's official web portal to all federal, state and local government web resources and services.